Regional Weather Roundup
Issued by NWS Pendleton, OR

Home | Current Version | Previous Version | Text Only | Print | Product List | Glossary On
Versions: 1 2 3 4 5 6 7 8 9 10 11 12 13 14 15 16 17 18 19 20 21 22 23 24 25 26 27 28 29 30 31 32 33 34 35 36 37 38 39 40 41 42 43 44 45 46 47 48 49 50
163
ASUS46 KPDT 242125
RWRPDT
PENDLETON REGIONAL WEATHER ROUNDUP
NATIONAL WEATHER SERVICE PENDLETON OREGON
200 PM PDT WED AUG 24 2016

NOTE: FAIR INDICATES FEW OR NO CLOUDS BELOW 12,000 FEET WITH NO
SIGNIFICANT WEATHER AND/OR OBSTRUCTIONS TO VISIBILITY.

# INDICATES UNOFFICIAL STATION AND DATA

WAZ520-242210-
EAST SLOPES OF WASHINGTON CASCADES

CITY            SKY/WX      TMP DP  RH  WIND    PRES   REMARKS
#CLE ELUM HS    N/A         82  39  22  S1      30.13F
#CLE ELUM 2NW   N/A         80  35  20  E2      N/A
#GLENWOOD       N/A         82  51  34  CALM    30.11F
#MANASTASH CYN  N/A         78  41  27  W3      30.20S
#NELSON 3SW     N/A         77  39  25  CALM    30.32F
#NILE           N/A         82  41  23  E2      29.40F
#RONALD 2NW     N/A         79  N/A N/A SW1     30.09F
#TEANAWAY 4NE   N/A         82  44  26  NW3     N/A
#TROUT LAKE 1NE N/A         80  44  28  CALM    30.11F
#TROUT LAKE 1E  N/A         82  48  31  CALM    30.13F
$$

WAZ521-242210-
SIMCOE HIGHLANDS

CITY            SKY/WX      TMP DP  RH  WIND    PRES   REMARKS
#CENTERVILLE 1SWN/A         81  44  27  E5      30.08F
#GOLDENDALE 1NE N/A         83  23  11  N5      N/A
#GOLDENDALE 4W  N/A         84  51  32  E10     30.19S
#GOODNOE HILLS  N/A         86  43  22  N12     30.06F
#LYLE 6NE       N/A         83  46  27  S7      30.06F
$$

WAZ026-242210-
KITTITAS VALLEY

CITY            SKY/WX      TMP DP  RH  WIND    PRES   REMARKS
ELLENSBURG AP   SUNNY       88  36  16  E13     30.19F
#ELLENSBURG CWU N/A         81  39  22  N8      30.07F
#ELLENSBURG 3NE N/A         80  47  31  N5      30.17F
#ELLENSBURG     N/A         86  40  20  NE5     N/A
#ELLENSBURG 1E  N/A         85  N/A N/A NE1     N/A
#KITTITAS 4N    N/A         83  42  24  E6      30.13F
#KITTITAS 3S    N/A         82  42  24  NE5     30.11F
#THORP 6N       N/A         80  38  22  NE7     30.15F
$$

WAZ027-242210-
YAKIMA VALLEY

CITY            SKY/WX      TMP DP  RH  WIND    PRES   REMARKS
SUNNYSIDE AP    SUNNY       85  44  24  N8      30.15F
YAKIMA AIRPORT  PTCLDY      89  37  16  N16     30.17F
YAKIMA-VAGABOND N/A         86  36  17  NE14G32 30.15F
#DONALD 2NE     N/A         91   9   5  N3      29.00F HX 87
#GRANDVIEW      N/A         82  42  24  CALM    30.13F
#MABTON         N/A         83  48  30  N2      30.14F
#NACHES 2SW     N/A         82  45  27  E7      30.20F
#TERRACE HTS    N/A         90  48  24  CALM    30.08F HX 87
#TOPPENISH      N/A         84  45  26  NE5     30.03F
#WEST VALLEY    N/A         83  42  24  NE2     30.10F
#WHITE SWAN 5E  N/A         85  47  27  SW2     30.13F
#WILEY CITY 3W  N/A         84  30  14  CALM    30.15F
$$

WAZ028-242210-
LOWER COLUMBIA BASIN...WASHINGTON

CITY            SKY/WX      TMP DP  RH  WIND    PRES   REMARKS
HANFORD         MOSUNNY     86  39  19  N8      30.16F
PASCO           SUNNY       86  50  29  N9      30.13F
PROSSER AWOS    N/A         86  45  24  N12     30.17F
RICHLAND AWOS   SUNNY       89  46  23  N7      30.12F
#BENTON CITY    N/A         83  46  27  N7      30.01F
#CONNELL 5N     N/A         86  44  23  E2      30.10F
#CONNELL 5NW    N/A         83  51  33  CALM    30.05F
#ELTOPIA 6NW    N/A         86  52  31  NW7     29.11F
#KAHLOTUS       N/A         82  42  24  E7      30.09F
#KENNEWICK 3S   N/A         84  53  34  CALM    30.11F
#PATERSON       N/A         83  54  37  E5      30.09F
#SAGEMOOR 2W    N/A         81  55  41  NW6     29.96F
#TOUCHET 2S     N/A         86  53  32  NW6     30.08F
#WEST PASCO     N/A         85  53  33  N6      30.12F
$$

WAZ029-242210-
FOOTHILLS OF THE BLUES...WASHINGTON

CITY            SKY/WX      TMP DP  RH  WIND    PRES   REMARKS
WALLA WALLA AP  SUNNY       82  41  23  CALM    30.15F
#CLYDE 6NW      N/A         83  42  24  N3      30.09F
#DAYTON SCHOOL  N/A         82  39  22  N2      30.14F
#LOWDEN 2SE     N/A         84  49  30  W2      30.08F
#PLEASANT VIEW 1N/A         83  41  23  N5      30.13F
#PRESCOTT       N/A         85  47  27  CALM    30.09F
#WHITMAN COLLEGEN/A         82  48  31  SE2     30.14F
#WAITSBURG 8N   N/A         87  30  13  N8      30.12F
#WHITMAN MISSIONN/A         83  49  31  CALM    30.11F
$$

WAZ030-242210-
BLUE MOUNTAINS...WASHINGTON

CITY            SKY/WX      TMP DP  RH  WIND    PRES   REMARKS
#DIXIE 5SE      N/A         73  43  34  NW7     30.15F
$$

ORZ009-041-WAZ024-242210-
COLUMBIA RIVER GORGE

CITY            SKY/WX      TMP DP  RH  WIND    PRES   REMARKS
HOOD RIVER AP   SUNNY       88  41  19  CALM    30.13F
THE DALLES AP   SUNNY       91  38  16  VRB3    30.10F HX 87
#ARLINGTON AIRPON/A         85  41  21  N14     30.11F
#LYLE           N/A         88  44  22  SE5     30.09F
#MARYHILL 2W    N/A         N/A N/A N/A CALM    N/A
#MOSIER 1S      N/A         88  31  13  N8      30.12F
#MURDOCK        N/A         88  46  23  W2      30.05F
#RUFUS DOT      N/A         87  41  20  SE7     N/A
#SMITHVILLE     N/A         90  44  20  S5      30.09F HX 86

$$

ORZ510-242210-
NORTH CENTRAL OREGON

CITY            SKY/WX      TMP DP  RH  WIND    PRES   REMARKS
#ANTELOPE       N/A         78  41  27  N13     29.96F
#COW CYN RST AREN/A         76  N/A N/A N7      N/A
#DUFUR 9E       N/A         78  40  26  NW13    30.14F
#GRASS VALLEY 1SN/A         80  40  24  N5      30.14F
#KENT DOT       N/A         79  43  28  N6      N/A
#MAUPIN SCHOOL  N/A         85  44  24  E1      30.16F
#SHANIKO 5WSW   N/A         74  40  29  N13     N/A
#TYGH VALLEY 2NEN/A         85  42  22  N7      30.09F
#WAPANITIA AIRPON/A         83  40  22  N9      30.12F
#WASCO DOT      N/A         87  49  27  NE3     N/A
#WASCO AIRPORT  N/A         84  36  18  NE8     N/A
#WASCO 5NE      N/A         84  45  26  N6      30.10F
$$

ORZ511-242210-
CENTRAL OREGON

CITY            SKY/WX      TMP DP  RH  WIND    PRES   REMARKS
BEND AIRPORT    N/A         N/A N/A N/A MISG    N/A
MADRAS AIRPORT  SUNNY       84  36  18  N7      30.22F
PRINEVILLE AP   SUNNY       79  32  18  N10     30.20F
REDMOND AIRPORT SUNNY       81  32  17  N14     30.20F
#ASHWOOD SCHOOL N/A         78  36  22  N8      30.14F
#BEND 1SW       N/A         75  37  25  E2      N/A
#BEND-AWBREY    N/A         76  38  25  NE6     30.09F
#CULVER         N/A         78  39  25  N3      30.04F
#CULVER 8W      N/A         78  27  15  CALM    30.19F
#LAKE BILLY CHINN/A         78  N/A N/A SE6     30.19F
#MADRAS 4S      N/A         78  17  10  N7      30.24F
#POWELL BUTTE   N/A         80  43  27  N2      30.07F
#PRINEVILLE 3N  N/A         78  39  25  N5      30.15F
#WARM SPRINGS   N/A         84  42  23  CALM    30.12F

$$


ORZ509-242210-
EAST SLOPES OF OREGON CASCADES

CITY            SKY/WX      TMP DP  RH  WIND    PRES   REMARKS
SISTERS AWOS    N/A         75  32  21  VRB7    30.17F
#BLUE BOX PASS  N/A         77  N/A N/A CALM    N/A
#CAMP SHERMAN   N/A         82  31  16  N2      30.18F
#LA PINE DOT    N/A         75  35  23  NW9     N/A
#LA PINE 4NW    N/A         74  37  26  NW6     30.13F
#LAVA BUTTE DOT N/A         77  42  29  NE1     N/A
#SISTERS AIRPOR N/A         76  43  31  N6      30.17S
#SISTERS ODOT   N/A         76  N/A N/A W3      N/A
#SISTERS 3N     N/A         76  39  26  NE3     30.13S
#SUNRIVER       N/A         75  35  23  N3      30.12F
#TUMALO 3W      N/A         74  37  26  N2      29.96F
#WANOGA BUTTE D N/A         63  24  22  NE8     N/A

$$

ORZ044-242210-
LOWER COLUMBIA BASIN...OREGON

CITY            SKY/WX      TMP DP  RH  WIND    PRES   REMARKS
HERMISTON       SUNNY       87  44  22  N10     30.13F
#BOARDMAN SCHOOLN/A         85  47  27  N3      30.11F
#ECHO 8SW       N/A         84  48  29  N2      30.14F
#I-84 EX 198 DOTN/A         81  56  42  E14     N/A
#UMATILLA       N/A         87  47  25  N8      30.03F
$$

ORZ507-242210-
NORTHERN FOOTHILLS OF THE BLUES

CITY            SKY/WX      TMP DP  RH  WIND    PRES   REMARKS
PENDLETON AIRPT SUNNY       82  41  23  N15     30.16F
#ADAMS 3WNW     N/A         80  45  29  NE6     30.10F
#ATHENA         N/A         78  45  31  N3      30.14F
#CAYUSE         N/A         79  45  30  N8      30.08F
#HELIX SCHOOL   N/A         77  46  33  N9      30.12F
#HELIX 3N       N/A         78  45  31  N13     30.14F
#HELIX 6SW      N/A         79  47  32  N8      30.14F
#HOLDMAN 5SE    N/A         80  47  31  N6      30.14F
#HOLDMAN 6E     N/A         79  45  30  S7      29.92F
#M-F GROVE ELEM N/A         80  42  26  CALM    30.12F
#M-FREEWATER 5SEN/A         81  51  35  W3      30.14F
#PENDLETON DNTN N/A         87  47  25  NW3     30.16F
#PDT AQUATIC CTRN/A         82  47  29  N7      30.16F
#PDT SUNRIDGE   N/A         82  44  26  W8      30.16F
#PENDLETON 7NW  N/A         80  52  38  N8      31.42S
#PILOT ROCK 1S  N/A         78  43  29  N2      30.17F
#PILOT ROCK     N/A         80  46  30  N2      30.16F
#TUTUILLA       N/A         83  45  26  CALM    30.12F
#UMAPINE 2E     N/A         82  50  33  W1      30.10F
#WESTON SCHOOL  N/A         76  40  27  SE5     30.02F

$$

ORZ508-242210-
SOUTHERN FOOTHILLS OF THE BLUES

CITY            SKY/WX      TMP DP  RH  WIND    PRES   REMARKS
LEXINGTON       SUNNY       82  39  22  N14     30.21F
#AJAX           N/A         79  36  21  N2      27.93F
#CONDON SCHOOL  N/A         77  39  25  N9      30.16F
#CONDON 5W      N/A         74  36  25  VRB13   30.21F
#FOSSIL SCHOOL  N/A         78  35  21  NE9     30.15F
#HEPPNER EOC    N/A         78  41  27  NW7     30.06F
#LEXINGTON 2SE  N/A         81  43  26  NW7     30.13F
#MIKKALO        N/A         84  40  21  E5      30.28F
#OLEX 4N        N/A         82  45  27  NE13    30.13F
#RUGGS 5NE      N/A         77  37  24  N14     30.36F
#RUGGS 2SW      N/A         75  39  27  N8      30.14F

$$

ORZ502-503-242210-
BLUE MOUNTAINS

CITY            SKY/WX      TMP DP  RH  WIND    PRES   REMARKS
MEACHAM         PTCLDY      73  33  23  VRB3    30.25S
#BATTLE MTN DOT N/A         69  42  37  N3      N/A
#CUTSFORTH PARK N/A         72  37  28  N1      30.04F
#HARDMAN 10S    N/A         71  35  27  N7      30.23S
#HEPPNER 15SE   N/A         72  38  29  SE1     25.77F
#LADD CYN SMT   N/A         74  43  33  N8      N/A
#LADD CREEK ODOTN/A         79  48  34  NW6     N/A
#LONG CREEK HS  N/A         71  37  29  VRB9    30.22F
#N POWDER DOT   N/A         77  48  36  N14     N/A
#PIKES PEAK     N/A         71  43  36  CALM    27.99S
#TOLLGATE       N/A         64  42  45  SE1     30.12S
#TROY SCHOOL    N/A         84  43  24  NE2     29.92F
#UKIAH          N/A         73  41  31  NW9     30.08F
#WESTON 4E      N/A         73  44  35  N5      30.06F
$$

ORZ505-242210-
JOHN DAY BASIN

CITY            SKY/WX      TMP DP  RH  WIND    PRES   REMARKS
JOHN DAY        PTCLDY      79  31  17  N8      30.21S
#DAYVILLE SCHOOLN/A         79  36  21  N7      30.11F
#MITCHELL       N/A         78  45  31  N2      30.35F
#MITCHELL 8NW   N/A         76  37  24  CALM    30.28F
#MONUMENT HS    N/A         80  35  20  N7      30.07F
#MT. VERNON 5SE N/A         74  34  23  NE5     30.17F
#SPRAY SCHOOL   N/A         83  N/A N/A CALM    N/A
$$

ORZ506-242210-
OCHOCO AND JOHN DAY HIGHLANDS

CITY            SKY/WX      TMP DP  RH  WIND    PRES   REMARKS
#BUCK CREEK DOT N/A         75  32  21  N8      N/A
#HORSE RIDGE DO N/A         74  29  19  NW3     N/A
#KEYES SMT DOT  N/A         73  37  27  N6      N/A
#PAULINA SCHOOL N/A         75  30  19  NE14    N/A
#PINE MTN OBS   N/A         63  31  30  N3      N/A
#PRAIRIE CITY   N/A         80  37  21  CALM    30.36F
#SENECA         N/A         70  N/A N/A N5      N/A
#SENECA 9NW     N/A         73  33  23  NE2     30.09S
$$

ORZ049-242210-
GRANDE RONDE VALLEY

CITY            SKY/WX      TMP DP  RH  WIND    PRES   REMARKS
LA GRANDE       PTCLDY      82  37  20  N16     30.16F
#COVE           N/A         78  44  30  N9      30.18F
#COVE SCHOOL    N/A         77  38  24  CALM    30.17F
#COVE 6NW       N/A         77  43  30  NW10    30.04F
#ELGIN 3N       N/A         79  37  22  N6      30.14S
#ELGIN 1E       N/A         81  43  26  CALM    N/A
#IMBLER SCHOOL  N/A         75  41  29  NW8     30.12S
#ISLAND CITY 4N N/A         90  49  25  CALM    30.11F HX 87
#LADD CYN DOT   N/A         78  48  35  NW8     N/A
#LA GRANDE ELEM N/A         75  41  29  NW5     30.17F
#UNION 1S       N/A         79  39  24  W7      29.98F
$$

ORZ050-242210-
WALLOWA COUNTY

CITY            SKY/WX      TMP DP  RH  WIND    PRES   REMARKS
JOSEPH AIRPORT  PTCLDY      73  32  22  W5      30.22F
#IMNAHA SCHOOL  N/A         57  41  55  N3      30.20S
#IMNAHA 10S     N/A         80  39  23  E6      30.14F
#JOSEPH 3N      N/A         72  35  26  CALM    30.23S
#JOSEPH 3W      N/A         68  38  33  N2      30.08S
#LOSTINE        N/A         79  39  24  W3      29.89F
#LOSTINE 3SE    N/A         75  36  24  N2      30.17S
#MT HOWARD 8000 N/A         52  34  50  N5      30.43R
#PROMISE 1S     N/A         73  38  28  W7      30.19F
#WALLOWA SCHOOL N/A         78  36  22  N3      30.13F



$$



USA.gov is the U.S. government's official web portal to all federal, state and local government web resources and services.